Orbital Elements at Epoch 2459000.5 (2020-May-31.0) TDB
Reference: JPL 14 (heliocentric ecliptic J2000)
Element | Value | Uncertainty (1-sigma) | Units |
e | .2371851187824866 | 3.9237e-08 | |
a | 2.580783698086141 | 9.0757e-09 | au |
q | 1.968660210103675 | 9.9582e-08 | au |
i | 4.343018886990876 | 5.9758e-06 | deg |
node | 23.2345744923102 | 5.9889e-05 | deg |
peri | 326.6175839217225 | 6.1578e-05 | deg |
M | 3.909144906593412 | 1.4361e-05 | deg |
tp | 2458984.056089450125 (2020-May-14.55608945) | 6.0363e-05 | TDB |
period | 1514.348518513694 4.15 | 7.9882e-06 2.187e-08 | d yr |
n | .2377259894923882 | 1.254e-09 | deg/d |
Q | 3.192907186068607 | 1.1228e-08 | au |
|
| | Orbit Determination Parameters
Additional Information
|